When you browse on this site, cookies collect data to enhance your experience and personalize the content and advertising you see.
Visit our Privacy Policy to learn more. By continuing to use the site, you agree to this use of cookies and data.
  • In Lithuania
  • List of Countries
  • For 7 days
  • Water Temperature
  • Weather Map
  • Weather Widgets
  • user-avatar
    Login

    Hourly Weather Algiers

    Today, 17 February, Monday

    Time Temperature Precipitation Wind Pressure Humidity
    00:00 +16°C° 0 mm 1 mps 756 mmHg 76%
    01:00 +15°C° 0 mm 0 mps 756 mmHg 75%
    02:00 +15°C° 0 mm 0 mps 755 mmHg 74%
    03:00 +14°C° 0 mm 0 mps 755 mmHg 74%
    04:00 +15°C° 0 mm 1 mps 755 mmHg 72%
    05:00 +15°C° 0 mm 1 mps 756 mmHg 71%
    06:00 +15°C° 0 mm 1 mps 756 mmHg 70%
    07:00 +18°C° 0 mm 1 mps 756 mmHg 65%
    08:00 +19°C° 0 mm 1 mps 756 mmHg 60%
    09:00 +20°C° 0 mm 1 mps 756 mmHg 55%
    10:00 +21°C° 0 mm 1 mps 756 mmHg 53%
    11:00 +21°C° 0 mm 2 mps 756 mmHg 52%
    12:00 +21°C° 0 mm 2 mps 756 mmHg 50%
    13:00 +21°C° 0 mm 2 mps 755 mmHg 53%
    14:00 +21°C° 0 mm 2 mps 755 mmHg 56%
    15:00 +20°C° 0 mm 2 mps 754 mmHg 58%
    16:00 +19°C° 0 mm 2 mps 754 mmHg 64%
    17:00 +19°C° 0 mm 1 mps 755 mmHg 69%
    18:00 +18°C° 0 mm 1 mps 755 mmHg 75%
    19:00 +16°C° 0 mm 1 mps 755 mmHg 76%
    20:00 +16°C° 0 mm 1 mps 755 mmHg 77%
    21:00 +16°C° 0 mm 1 mps 756 mmHg 78%
    22:00 +15°C° 0 mm 1 mps 756 mmHg 78%
    23:00 +14°C° 0 mm 0 mps 756 mmHg 79%

    Tomorrow, 18 February, Tuesday

    Time Temperature Precipitation Wind Pressure Humidity
    00:00 +14°C° 0 mm 0 mps 756 mmHg 79%
    01:00 +14°C° 0 mm 0 mps 756 mmHg 80%
    02:00 +14°C° 0 mm 0 mps 756 mmHg 81%
    03:00 +13°C° 0 mm 0 mps 755 mmHg 82%
    04:00 +14°C° 0 mm 1 mps 756 mmHg 83%
    05:00 +14°C° 0 mm 1 mps 756 mmHg 83%
    06:00 +14°C° 0 mm 1 mps 756 mmHg 84%
    07:00 +15°C° 0 mm 1 mps 756 mmHg 81%
    08:00 +15°C° 0 mm 1 mps 757 mmHg 79%
    09:00 +16°C° 0 mm 1 mps 757 mmHg 76%
    10:00 +17°C° 0 mm 2 mps 757 mmHg 74%
    11:00 +17°C° 0 mm 3 mps 757 mmHg 73%
    12:00 +18°C° 0 mm 4 mps 757 mmHg 71%
    13:00 +16°C° 0 mm 5 mps 756 mmHg 73%
    14:00 +16°C° 0 mm 6 mps 756 mmHg 75%
    15:00 +16°C° 0 mm 7 mps 756 mmHg 78%
    16:00 +15°C° 0 mm 7 mps 756 mmHg 80%
    17:00 +14°C° 0 mm 7 mps 756 mmHg 82%
    18:00 +14°C° 0 mm 6 mps 756 mmHg 85%
    19:00 +14°C° 0 mm 6 mps 757 mmHg 85%
    20:00 +13°C° 0 mm 6 mps 757 mmHg 85%
    21:00 +13°C° 0 mm 5 mps 757 mmHg 85%
    22:00 +13°C° 0 mm 6 mps 757 mmHg 85%
    23:00 +13°C° 0 mm 6 mps 757 mmHg 86%

    Day after tomorrow, 19 February, Wednesday

    Time Temperature Precipitation Wind Pressure Humidity
    00:00 +11°C° 0 mm 6 mps 757 mmHg 87%
    01:00 +13°C° 0 mm 6 mps 757 mmHg 86%
    02:00 +13°C° 0 mm 6 mps 757 mmHg 85%
    03:00 +13°C° 0 mm 6 mps 757 mmHg 84%
    04:00 +13°C° 0 mm 6 mps 757 mmHg 84%
    05:00 +13°C° 0 mm 6 mps 757 mmHg 84%
    06:00 +11°C° 0 mm 6 mps 757 mmHg 84%
    07:00 +13°C° 0 mm 6 mps 757 mmHg 82%
    08:00 +13°C° 0 mm 6 mps 758 mmHg 80%
    09:00 +13°C° 0 mm 6 mps 758 mmHg 78%
    10:00 +14°C° 0 mm 6 mps 758 mmHg 74%
    11:00 +15°C° 0 mm 6 mps 758 mmHg 70%
    12:00 +15°C° 0 mm 7 mps 758 mmHg 67%
    13:00 +15°C° 0 mm 7 mps 758 mmHg 68%
    14:00 +15°C° 0 mm 7 mps 757 mmHg 69%
    15:00 +14°C° 0 mm 7 mps 757 mmHg 69%
    16:00 +14°C° 0 mm 7 mps 757 mmHg 73%
    17:00 +12°C° 0 mm 7 mps 757 mmHg 76%
    18:00 +11°C° 0 mm 6 mps 757 mmHg 80%
    19:00 +11°C° 0 mm 6 mps 757 mmHg 80%
    20:00 +10°C° 0 mm 5 mps 757 mmHg 81%
    21:00 +11°C° 0 mm 4 mps 758 mmHg 81%
    22:00 +11°C° 0 mm 4 mps 757 mmHg 81%
    23:00 +11°C° 0 mm 3 mps 757 mmHg 81%

    20 February, Thursday

    Time Temperature Precipitation Wind Pressure Humidity
    00:00 +11°C° 0 mm 3 mps 757 mmHg 80%
    01:00 +10°C° 0 mm 2 mps 756 mmHg 80%
    02:00 +10°C° 0 mm 2 mps 756 mmHg 79%
    03:00 +10°C° 0 mm 2 mps 755 mmHg 79%
    04:00 +10°C° 0 mm 2 mps 755 mmHg 79%
    05:00 +10°C° 0 mm 2 mps 755 mmHg 79%
    06:00 +10°C° 0 mm 2 mps 754 mmHg 80%
    07:00 +12°C° 0 mm 2 mps 755 mmHg 74%
    08:00 +14°C° 0 mm 2 mps 755 mmHg 69%
    09:00 +15°C° 0 mm 2 mps 755 mmHg 64%
    10:00 +16°C° 0 mm 2 mps 754 mmHg 60%
    11:00 +17°C° 0 mm 2 mps 754 mmHg 56%
    12:00 +18°C° 0 mm 2 mps 753 mmHg 52%
    13:00 +18°C° 0 mm 3 mps 753 mmHg 54%
    14:00 +18°C° 0 mm 3 mps 752 mmHg 55%
    15:00 +18°C° 0 mm 4 mps 752 mmHg 57%
    16:00 +17°C° 0 mm 4 mps 752 mmHg 63%
    17:00 +15°C° 0 mm 4 mps 752 mmHg 68%
    18:00 +14°C° 0 mm 4 mps 752 mmHg 74%
    19:00 +14°C° 0 mm 4 mps 752 mmHg 73%
    20:00 +14°C° 0 mm 3 mps 752 mmHg 72%
    21:00 +14°C° 0 mm 3 mps 752 mmHg 71%
    22:00 +14°C° 0 mm 3 mps 752 mmHg 70%
    23:00 +14°C° 0 mm 3 mps 752 mmHg 69%

    21 February, Friday

    Time Temperature Precipitation Wind Pressure Humidity
    00:00 +15°C° 0 mm 2 mps 752 mmHg 68%
    01:00 +15°C° 0 mm 2 mps 752 mmHg 68%
    02:00 +15°C° 0 mm 2 mps 752 mmHg 68%
    03:00 +14°C° 0 mm 2 mps 753 mmHg 67%
    04:00 +13°C° 0 mm 3 mps 753 mmHg 68%
    05:00 +13°C° 0 mm 3 mps 753 mmHg 69%
    06:00 +13°C° 0 mm 3 mps 753 mmHg 70%
    13:00 +16°C° 0 mm 6 mps 756 mmHg 69%
    14:00 +15°C° 0 mm 8 mps 755 mmHg 75%
    15:00 +13°C° 0 mm 8 mps 755 mmHg 78%
    16:00 +14°C° 0 mm 7 mps 756 mmHg 79%
    17:00 +12°C° 0 mm 7 mps 756 mmHg 81%
    18:00 +11°C° 0 mm 6 mps 757 mmHg 82%
    19:00 +11°C° 0 mm 6 mps 757 mmHg 81%
    20:00 +11°C° 0 mm 6 mps 758 mmHg 81%
    21:00 +11°C° 0 mm 6 mps 759 mmHg 80%
    22:00 +11°C° 0 mm 6 mps 759 mmHg 79%
    23:00 +11°C° 0 mm 6 mps 759 mmHg 79%

    22 February, Saturday

    Time Temperature Precipitation Wind Pressure Humidity
    00:00 +12°C° 0 mm 5 mps 759 mmHg 78%
    01:00 +12°C° 0 mm 5 mps 759 mmHg 79%
    02:00 +10°C° 0 mm 5 mps 759 mmHg 80%
    03:00 +10°C° 0 mm 5 mps 760 mmHg 81%
    04:00 +10°C° 0 mm 5 mps 760 mmHg 81%
    05:00 +9°C° 0 mm 5 mps 760 mmHg 81%
    06:00 +9°C° 0 mm 5 mps 760 mmHg 80%
    07:00 +11°C° 0 mm 4 mps 761 mmHg 74%
    08:00 +12°C° 0 mm 4 mps 761 mmHg 68%
    09:00 +13°C° 0 mm 4 mps 761 mmHg 62%
    10:00 +14°C° 0 mm 5 mps 761 mmHg 59%
    11:00 +14°C° 0 mm 5 mps 761 mmHg 56%
    12:00 +15°C° 0 mm 5 mps 761 mmHg 53%
    13:00 +15°C° 0 mm 5 mps 761 mmHg 54%
    14:00 +15°C° 0 mm 5 mps 761 mmHg 55%
    15:00 +14°C° 0 mm 5 mps 760 mmHg 57%
    16:00 +13°C° 0 mm 5 mps 760 mmHg 62%
    17:00 +12°C° 0 mm 4 mps 761 mmHg 67%
    18:00 +11°C° 0 mm 4 mps 761 mmHg 72%
    19:00 +11°C° 0 mm 4 mps 761 mmHg 72%
    20:00 +11°C° 0 mm 3 mps 762 mmHg 73%
    21:00 +10°C° 0 mm 3 mps 762 mmHg 73%
    22:00 +10°C° 0 mm 3 mps 762 mmHg 73%
    23:00 +10°C° 0 mm 2 mps 762 mmHg 74%
    Show more